map of BOD home
BOD - Airport
Location
City:  Bordeaux, Aquitaine, France
Name:Mérignac
ICAO:LFBD
IATA:BOD

Details
Type:Airport (Aerodrome, Airfield)
Use:Public/Civil, International (customs port of entry)
Latitude:44°49'43"N (44.828611)
Longitude:0°42'55"W (-0.715277)
Elevation:166 ft (51 m)
Variation:0.04°E (WMM2015 magnetic declination)
0.13° annual change
Runways:2
Longest:10171 × 148 ft (3100 × 45 m), paved

Time
Time Zone:UTC+1 (DST+2)
Local Time:

Weather
METAR:LFBD 160800Z AUTO 04004KT 010V070 CAVOK 13/12 Q1017 NOSIG
TAF:LFBD 160500Z 1606/1712 02005KT 1500 BCFG BKN002 TX19/1615Z TN11/1606Z
TEMPO 1606/1609 0400 FG VV///
BECMG 1610/1612 CAVOK
TEMPO 1700/1712 BKN020

Related Locations
Nearby:
Farthest:CHT: 12217 mi / 19661 km
Waitangi [Tuuta], CIT, NZ

Find:

   beyond  
but within

Other Information
Maps:
NOTAMs:
Links:
Sources:

  
  • flag of France
  • flag of Aquitaine
  • flag of Bordeaux
  

Sectional Chart

Flight Planning
at skyvector.com

Satellite Image

Google Maps Satellite view

 

Copyright © 2004-2018 Karl L. Swartz. All rights reserved.
The Great Circle Mapper name and logo are trademarks of the Great Circle Mapper.
All other trademarks mentioned herein belong to their respective owners.
Please see credits for attibutions and further copyright information.

  Follow gcmap on Facebook Follow gcmap on Twitter Follow gcmap on Google+ GCmap on LinkedIn

hCard Microformat

Geo Microformat